Home   Weather   Orange   Past weeks
Flag for Australia

Past Weather in Orange, New South Wales, Australia — Yesterday and Last 2 Weeks

Now
61 °F

Refreshingly cool.


Feels Like: 61 °F
Forecast: 74 / 46 °F
Wind: 6 mph from Southeast

Location: Bathurst Airport Aws

Current Time: Oct 23, 2019 at 1:38:39 am

Latest Report: Oct 23, 2019 at 12:00 am


Visibility: N/A

Pressure: 30.23 "Hg (27.30 "Hg at 863m altitude)

Humidity: 45%

Dew Point: 39 °F

Location of OrangeLocation

Past Weather in Orange — Graph

°F

Orange Temperature Yesterday

Maximum temperature yesterday: 79 °F (at 3:00 pm)
Minimum temperature yesterday: 44 °F (at 6:00 am)
Average temperature yesterday: 63 °F

High & Low Weather Summary for the Past Weeks

 TemperatureHumidityPressure
High82 °F (Oct 15, 3:00 pm)100% (Oct 8, 4:00 pm)30.32 "Hg (Oct 8, 4:00 pm)
Low35 °F (Oct 9, 7:00 am)15% (Oct 15, 6:00 pm)29.76 "Hg (Oct 17, 5:00 am)
Average55 °F59%30.04 "Hg
* Reported Oct 8 12:00 am — Oct 23 12:00 am, Orange. Weather by CustomWeather, © 2019

Note: Actual official high and low records may vary slightly from our data, if they occured in-between our weather recording intervals... More about our weather records

Advertising

Orange Weather History for the Previous 24 Hours

Scroll right to see more
 ConditionsComfort  
Time TempWeatherWind HumidityBarometerVisibility
12:00 am
Wed, Oct 23
61 °FRefreshingly cool.6 mph45%30.23 "HgN/A
11:00 pm
Tue, Oct 22
64 °FMild.8 mph39%30.23 "HgN/A
10:00 pm66 °FMild.12 mph29%30.22 "HgN/A
9:00 pm65 °FMild.8 mph31%30.21 "HgN/A
8:00 pm69 °FMild.6 mph26%30.19 "HgN/A
7:00 pm73 °FMild.9 mph23%30.17 "HgN/A
6:00 pm77 °FPleasantly warm.8 mph19%30.16 "HgN/A
5:00 pm78 °FPleasantly warm.9 mph19%30.16 "HgN/A
4:00 pm78 °FPleasantly warm.8 mph23%30.16 "HgN/A
3:00 pm79 °FPassing clouds.2 mph22%30.18 "HgN/A
2:00 pm78 °FPleasantly warm.5 mph18%30.21 "HgN/A
1:00 pm76 °FMild.6 mph20%30.23 "HgN/A
12:00 pm73 °FMild.3 mph29%30.26 "HgN/A
11:00 am70 °FMild.6 mph39%30.29 "HgN/A
10:00 am64 °FMild.1 mph54%30.30 "HgN/A
9:00 am57 °FCool.2 mph71%30.30 "HgN/A
8:00 am51 °FCool.3 mph90%30.30 "HgN/A
7:00 am44 °FQuite cool.No wind99%30.29 "HgN/A
6:00 am44 °FQuite cool.5 mph99%30.28 "HgN/A
5:00 am46 °FCool.No wind100%30.26 "HgN/A
4:00 am47 °FCool.2 mph95%30.25 "HgN/A
3:00 am49 °FCool.5 mph91%30.25 "HgN/A
2:00 am52 °FCool.No wind72%30.26 "HgN/A
1:00 am55 °FCool.3 mph67%30.27 "HgN/A
Weather by CustomWeather, © 2019

See weather overview